Stations météo

réclame
Mon MeteoGroup
Exeter Airport No. 2, Grande-Bretagne (3844): Température de l'air & dewpoint: 17.10.2017 08:00:00 - 23.10.2017 08:00:00 (BST)Exeter Airport No. 2, Grande-Bretagne (3844): Vitesse du vent & gusts: 17.10.2017 08:00:00 - 23.10.2017 08:00:00 (BST)Exeter Airport No. 2, Grande-Bretagne (3844): Direction du vent: 17.10.2017 08:00:00 - 23.10.2017 08:00:00 (BST)Exeter Airport No. 2, Grande-Bretagne (3844): reduced air pressure: 17.10.2017 08:00:00 - 23.10.2017 08:00:00 (BST)Exeter Airport No. 2, Grande-Bretagne (3844): visibility: 17.10.2017 08:00:00 - 23.10.2017 08:00:00 (BST)Exeter Airport No. 2, Grande-Bretagne (3844): Ensoleillement: 17.10.2017 08:00:00 - 23.10.2017 08:00:00 (BST)Exeter Airport No. 2, Grande-Bretagne (3844): Quantités de précipitations: 17.10.2017 08:00:00 - 23.10.2017 08:00:00 (BST)
Date & Time tt [°C] td [°C] ff [km/h] ff [knt] fx [km/h] fx [knt] dd ppp [hPa] vv [km] sd [min] rr [mm]
23.10.2017 08:00:00 13,8 13,1 13 7 - - SSW 1016,2 16 0 -
23.10.2017 07:00:00 13,4 12,7 16 9 - - S 1016,7 30 0 -
23.10.2017 06:00:00 12,8 12,0 15 8 - - S 1017,3 40 0 -
23.10.2017 05:00:00 12,6 12,0 11 6 - - SSW 1017,7 10 0 0,6
23.10.2017 04:00:00 12,3 11,7 13 7 - - S 1018,1 7 0 0,4
23.10.2017 03:00:00 11,7 11,1 13 7 - - S 1018,8 12 0 0,2
23.10.2017 02:00:00 11,4 10,1 11 6 - - SSW 1019,2 17 0 0,4
23.10.2017 01:00:00 11,8 9,7 13 7 - - SW 1019,5 26 - 0,0
23.10.2017 00:00:00 11,8 9,3 11 6 - - SSW 1019,6 28 0 0,0
22.10.2017 23:00:00 11,4 9,0 9 5 - - SW 1020,1 29 0 0,0
22.10.2017 22:00:00 11,4 8,9 8 4 - - SSW 1020,5 30 0 0,0
22.10.2017 21:00:00 11,7 9,1 13 7 - - W 1020,4 29 0 -
22.10.2017 20:00:00 10,9 8,0 18 10 - - W 1020,2 40 0 0,0
22.10.2017 19:00:00 11,8 8,5 22 12 - - W 1019,5 30 0 0,0
22.10.2017 18:00:00 12,5 7,2 16 9 - - W 1019,1 35 0 0,0
22.10.2017 17:00:00 12,7 7,8 22 12 - - W 1018,8 35 0 0,0
22.10.2017 16:00:00 13,3 7,7 24 13 52 28 W 1018,7 35 6 0,0
22.10.2017 15:00:00 13,5 8,2 34 18 54 29 W 1018,1 30 36 0,0
22.10.2017 14:00:00 13,7 9,1 34 18 55 30 W 1018,1 30 54 0,0
22.10.2017 13:00:00 12,7 9,5 26 14 48 26 W 1017,8 35 30 0,0
22.10.2017 12:00:00 13,0 8,4 28 15 52 28 W 1017,4 35 36 0,2
22.10.2017 11:00:00 12,7 8,1 26 14 52 28 WNW 1016,9 30 48 0,0
22.10.2017 10:00:00 11,5 6,9 22 12 - - WNW 1016,4 30 48 0,0
22.10.2017 09:00:00 9,6 5,0 15 8 - - WNW 1015,9 24 18 0,0
22.10.2017 08:00:00 9,2 4,8 15 8 - - W 1015,3 23 0 0,0
22.10.2017 07:00:00 9,0 4,9 16 9 - - W 1015,0 20 0 0,0
22.10.2017 06:00:00 9,0 5,3 21 11 - - W 1014,5 19 0 0,0
22.10.2017 05:00:00 8,9 6,8 11 6 - - W 1013,9 20 0 0,6
22.10.2017 04:00:00 9,5 6,5 28 15 46 25 W 1013,3 6 0 -
22.10.2017 03:00:00 10,4 6,5 26 14 - - W 1012,2 20 0 0,0
22.10.2017 02:00:00 10,4 7,4 24 13 50 27 W 1011,5 17 0 0,4
22.10.2017 01:00:00 11,0 7,5 26 14 55 30 W 1010,6 12 - 0,0
22.10.2017 00:00:00 11,2 7,6 34 18 55 30 W 1009,5 19 0 0,0
21.10.2017 23:00:00 11,1 8,1 34 18 57 31 W 1008,6 20 0 0,2
21.10.2017 22:00:00 11,6 8,0 31 17 50 27 W 1007,6 21 0 0,0
21.10.2017 21:00:00 11,3 9,3 28 15 54 29 W 1006,7 6 0 0,0
21.10.2017 20:00:00 11,6 9,6 34 18 52 28 W 1005,5 17 0 0,2
21.10.2017 19:00:00 11,6 10,3 31 17 54 29 W 1004,2 7 0 0,8
21.10.2017 18:00:00 11,1 9,5 37 20 54 29 WSW 1002,6 7 0 0,8
21.10.2017 17:00:00 12,2 8,4 37 20 57 31 WSW 1002,9 24 0 0,0
21.10.2017 16:00:00 13,0 8,4 41 22 63 34 WSW 1002,4 21 6 0,0
21.10.2017 15:00:00 13,3 8,2 46 25 72 39 WSW 1002,0 25 36 0,0
21.10.2017 14:00:00 12,9 9,1 39 21 59 32 WSW 1002,1 22 6 0,0
21.10.2017 13:00:00 12,9 8,9 37 20 57 31 WSW 1001,6 5 18 0,0
21.10.2017 12:00:00 13,6 8,2 37 20 63 34 SW 1001,3 21 24 0,0
21.10.2017 11:00:00 13,4 8,5 35 19 55 30 WSW 1001,0 20 36 0,0
21.10.2017 10:00:00 11,5 8,4 41 22 59 32 WSW 1000,7 24 0 1,2
21.10.2017 09:00:00 11,8 9,5 26 14 57 31 SW 1000,3 7 0 0,4
21.10.2017 08:00:00 12,3 9,4 29 16 55 30 SW 999,9 4,9 0 0,0
21.10.2017 07:00:00 12,5 9,4 34 18 52 28 SW 1000,1 14 0 -
21.10.2017 06:00:00 12,9 9,0 31 17 50 27 SW 999,8 3,0 0 -
21.10.2017 05:00:00 12,9 9,2 34 18 54 29 SW 999,8 2,7 0 -
21.10.2017 04:00:00 13,2 9,8 29 16 48 26 SW 1000,1 3,3 0 -
21.10.2017 03:00:00 13,7 12,1 26 14 50 27 SSW 1000,3 4,4 0 -
21.10.2017 02:00:00 13,9 12,2 22 12 - - S 1000,3 7 0 -
21.10.2017 01:00:00 13,7 11,6 16 9 - - SSW 1000,9 6 - -
21.10.2017 00:00:00 13,7 12,2 16 9 - - SSW 1001,2 6 0 -
20.10.2017 23:00:00 14,4 11,7 39 21 61 33 SW 1001,1 6 0 -
20.10.2017 22:00:00 14,7 14,2 31 17 55 30 S 1001,5 4,7 0 -
20.10.2017 21:00:00 14,2 13,4 29 16 48 26 SSE 1002,3 3,7 0 1,6
20.10.2017 20:00:00 14,4 12,0 29 16 48 26 S 1003,5 5 0 0,0
20.10.2017 19:00:00 14,5 11,5 21 11 - - S 1004,9 5 0 0,0
20.10.2017 18:00:00 14,4 11,1 24 13 - - S 1005,8 9 0 0,0
20.10.2017 17:00:00 14,1 10,3 18 10 - - S 1006,7 13 0 0,0
20.10.2017 16:00:00 13,9 9,0 22 12 - - SSW 1007,5 2,3 0 0,0
20.10.2017 15:00:00 14,3 9,0 18 10 - - S 1008,1 2,2 6 0,0
20.10.2017 14:00:00 13,9 7,6 21 11 - - SW 1008,4 2,5 12 0,0
20.10.2017 13:00:00 13,7 7,1 24 13 - - WSW 1009,0 3,2 36 0,0
20.10.2017 12:00:00 13,6 6,6 24 13 - - W 1009,0 3,5 60 0,0
20.10.2017 11:00:00 12,7 6,2 24 13 - - W 1008,7 3,3 54 0,0
20.10.2017 10:00:00 12,0 7,0 18 10 - - WSW 1008,5 2,3 54 0,0
20.10.2017 09:00:00 10,6 7,2 16 9 - - W 1007,7 2,3 36 0,0
20.10.2017 08:00:00 10,8 6,7 22 12 - - W 1006,1 2,4 0 0,0
20.10.2017 07:00:00 11,4 7,9 26 14 54 29 W 1004,7 2,3 0 0,0
20.10.2017 06:00:00 11,3 8,6 29 16 48 26 W 1003,3 2,8 0 0,2
20.10.2017 05:00:00 11,2 9,9 28 15 - - W 1002,2 2,5 0 0,0
20.10.2017 04:00:00 12,0 9,7 34 18 57 31 W 1000,7 3,3 0 0,0
20.10.2017 03:00:00 12,2 10,4 29 16 55 30 W 998,9 3,3 0 0,2
20.10.2017 02:00:00 12,3 11,0 31 17 52 28 WSW 997,4 2,2 0 0,2
20.10.2017 01:00:00 12,2 10,9 29 16 - - SW 996,0 3,3 - 0,0
20.10.2017 00:00:00 12,0 10,4 34 18 50 27 SW 995,2 3,8 0 0,0
19.10.2017 23:00:00 12,2 10,6 29 16 48 26 SW 994,8 3,5 0 0,0
19.10.2017 22:00:00 12,1 11,0 26 14 48 26 S 994,9 3,8 0 0,0
19.10.2017 21:00:00 12,3 10,8 28 15 - - SSW 994,9 3,3 0 0,0
19.10.2017 20:00:00 13,3 11,5 22 12 - - SSW 995,2 3,8 0 0,0
19.10.2017 19:00:00 14,2 12,6 28 15 63 34 SSW 994,9 4,7 0 1,2
19.10.2017 18:00:00 13,9 13,2 35 19 55 30 SSE 995,0 2,6 0 1,8
19.10.2017 17:00:00 14,1 13,1 31 17 54 29 SSE 996,6 2,6 0 3,6
19.10.2017 16:00:00 14,6 12,8 26 14 - - SSE 997,5 9 0 0,2
19.10.2017 15:00:00 15,0 13,5 22 12 - - S 999,1 18 0 0,2
19.10.2017 14:00:00 14,7 13,1 16 9 - - S 999,7 24 0 0,0
19.10.2017 13:00:00 15,4 14,0 16 9 - - S 1000,5 12 0 0,0
19.10.2017 12:00:00 15,7 14,9 18 10 - - S 1001,4 9 0 0,0
19.10.2017 11:00:00 14,9 14,6 8 4 - - S 1001,9 2,3 0 0,2
19.10.2017 10:00:00 14,1 13,5 13 7 - - ESE 1002,7 7 0 0,0
19.10.2017 09:00:00 13,6 13,2 9 5 - - E 1003,7 5 0 0,0
19.10.2017 08:00:00 12,7 12,6 2 1 - - ENE 1003,7 3,8 0 0,0
19.10.2017 07:00:00 13,0 12,9 15 8 - - ESE 1004,3 4,6 0 0,0
19.10.2017 06:00:00 10,3 10,1 2 1 - - NNE 1005,5 0,1 0 0,0
19.10.2017 05:00:00 10,8 10,4 2 1 - - ENE 1005,8 0,9 0 0,0
19.10.2017 04:00:00 11,5 10,9 5 3 - - SE 1006,7 2,6 0 0,0
19.10.2017 03:00:00 13,2 12,6 5 3 - - SSE 1007,6 6 0 0,0
19.10.2017 02:00:00 13,1 12,6 5 3 - - ENE 1008,0 6 0 0,0
19.10.2017 01:00:00 13,1 12,6 9 5 - - SE 1008,0 6 - 0,0
19.10.2017 00:00:00 12,5 12,1 4 2 - - ESE 1009,1 4,0 0 0,0
18.10.2017 23:00:00 12,2 11,5 9 5 - - SSE 1009,0 4,8 0 0,0
18.10.2017 22:00:00 12,9 12,5 8 4 - - SE 1009,3 5 0 0,0
18.10.2017 21:00:00 12,4 12,2 9 5 - - SE 1009,6 3,1 0 0,0
18.10.2017 20:00:00 11,6 11,0 5 3 - - E 1009,6 1,9 0 0,0
18.10.2017 19:00:00 13,2 12,3 4 2 - - SSE 1009,7 5 0 0,0
18.10.2017 18:00:00 13,4 12,2 2 1 - - SSE 1009,4 6 0 0,0
18.10.2017 17:00:00 13,3 12,6 2 1 - - E 1009,4 5 0 0,0
18.10.2017 16:00:00 12,9 12,1 4 2 - - ENE 1009,6 4,5 0 0,0
18.10.2017 15:00:00 12,6 11,9 2 1 - - NNE 1009,7 4,9 0 0,0
18.10.2017 14:00:00 12,5 11,6 2 1 - - SE 1010,0 4,0 0 0,0
18.10.2017 13:00:00 12,4 11,2 5 3 - - N 1010,4 9 0 0,0
18.10.2017 12:00:00 12,4 11,1 4 2 - - N 1010,7 11 0 0,0
18.10.2017 11:00:00 11,9 11,0 9 5 - - NE 1010,7 12 0 0,0
18.10.2017 10:00:00 10,9 9,9 8 4 - - NE 1010,9 7 0 0,0
18.10.2017 09:00:00 10,8 9,7 11 6 - - NE 1010,9 16 0 0,0
18.10.2017 08:00:00 10,8 9,6 9 5 - - NE 1010,9 18 0 0,2
18.10.2017 07:00:00 10,6 9,7 5 3 - - NE 1010,9 13 0 0,2
18.10.2017 06:00:00 10,6 9,6 4 2 - - NE 1011,3 17 0 0,0
18.10.2017 05:00:00 10,4 9,4 4 2 - - NNE 1011,9 23 0 0,0
18.10.2017 04:00:00 10,1 9,1 4 2 - - NNE 1012,3 22 0 0,0
18.10.2017 03:00:00 10,2 9,1 5 3 - - NE 1013,2 16 0 0,0
18.10.2017 02:00:00 10,0 9,2 9 5 - - NE 1013,6 23 0 0,0
18.10.2017 01:00:00 9,9 8,9 5 3 - - NNE 1014,2 20 - 0,0
18.10.2017 00:00:00 10,0 9,3 8 4 - - N 1015,2 18 0 0,0
17.10.2017 23:00:00 10,0 9,4 5 3 - - NE 1016,0 22 0 0,2
17.10.2017 22:00:00 10,2 9,5 8 4 - - NNE 1016,6 11 0 0,4
17.10.2017 21:00:00 10,3 9,7 4 2 - - NE 1016,2 7 0 0,4
17.10.2017 20:00:00 10,4 9,9 2 1 - - NE 1016,1 16 0 0,0
17.10.2017 19:00:00 10,5 9,9 2 1 - - WSW 1016,3 16 0 0,0
17.10.2017 18:00:00 10,9 10,1 4 2 - - SE 1016,7 10 0 0,4
17.10.2017 17:00:00 11,3 9,4 9 5 - - SSE 1017,6 8 0 0,4
17.10.2017 16:00:00 12,1 10,3 8 4 - - S 1018,3 9 0 0,4
17.10.2017 15:00:00 12,7 9,2 5 3 - - E 1018,0 17 0 0,0
17.10.2017 14:00:00 13,0 10,0 5 3 - - S 1019,1 21 0 0,0
17.10.2017 13:00:00 13,2 9,3 5 3 - - SSE 1019,9 23 0 0,0
17.10.2017 12:00:00 13,3 9,2 5 3 - - SSW 1020,4 22 0 0,0
17.10.2017 11:00:00 12,7 8,9 0 0 - - N 1020,1 - 6 0,0
17.10.2017 10:00:00 12,0 9,8 5 3 - - SSE 1020,3 - 12 0,0
17.10.2017 09:00:00 10,0 8,2 5 3 - - NE 1020,1 - 6 0,0
17.10.2017 08:00:00 10,2 8,2 13 7 - - SSW 1019,7 - 0 0,0

tt = Température de l'air
td = dewpoint
ff = Vitesse du vent
fx = gusts
dd = Direction du vent
ppp = reduced air pressure
vv = visibility
sd = Ensoleillement
rr = Quantités de précipitations

stations d'obs. à proximité